Location: Yecla
(38.6122°N, 1.1101°W)
Time: 03:59:48
(UTC+01:00)

ISS - Visible Passes

Search period start: 21 November 2017 00:00
Search period end: 01 December 2017 00:00
Orbit: 402 x 407 km, 51.6° (Epoch: 21 November)

Date Brightness Start Highest point End Pass type
(mag) Time Alt. Az. Time Alt. Az. Time Alt. Az.
24 Nov -0.8 20:04:28 10° SSW 20:04:39 11° SSW 20:04:39 11° SSW visible
25 Nov -2.2 19:12:49 10° S 19:14:56 21° SE 19:14:56 21° SE visible
26 Nov -1.5 18:22:18 10° SE 18:23:18 11° SE 18:24:19 10° ESE visible
26 Nov -1.8 19:56:05 10° WSW 19:57:47 28° WSW 19:57:47 28° WSW visible
27 Nov -3.7 19:03:49 10° SW 19:07:02 58° SE 19:07:53 41° E visible
28 Nov -2.5 18:11:56 10° SSW 18:14:47 28° SE 18:17:38 10° ENE visible
28 Nov -1.9 19:48:16 10° W 19:50:32 27° NW 19:50:32 27° NW visible
29 Nov -3.3 18:55:32 10° WSW 18:58:44 53° NW 19:00:27 24° NNE visible
30 Nov -1.5 19:40:52 10° WNW 19:42:56 17° NNW 19:42:56 17° NNW visible
